When you browse on this site, cookies collect data to enhance your experience and personalize the content and advertising you see.
Visit our Privacy Policy to learn more. By continuing to use the site, you agree to this use of cookies and data.

Hourly Weather Konstantyna

Today, 20 September, Sunday

Time Temperature Precipitation Wind Pressure Humidity
00:00 +25°C° 0 mm 1 mps 711 mmHg 61%
01:00 +25°C° 0 mm 1 mps 711 mmHg 62%
02:00 +25°C° 0 mm 1 mps 711 mmHg 63%
03:00 +25°C° 0 mm 2 mps 711 mmHg 64%
04:00 +25°C° 0 mm 2 mps 711 mmHg 65%
05:00 +25°C° 0 mm 1 mps 711 mmHg 67%
06:00 +25°C° 0 mm 1 mps 712 mmHg 68%
07:00 +25°C° 0 mm 1 mps 712 mmHg 66%
08:00 +26°C° 0 mm 1 mps 712 mmHg 63%
09:00 +27°C° 0 mm 2 mps 712 mmHg 61%
10:00 +28°C° 0 mm 2 mps 712 mmHg 56%
11:00 +29°C° 0 mm 2 mps 712 mmHg 51%
12:00 +30°C° 0 mm 2 mps 712 mmHg 46%
13:00 +30°C° 0.1 mm 3 mps 712 mmHg 46%
14:00 +30°C° 0.1 mm 3 mps 712 mmHg 47%
15:00 +30°C° 0.1 mm 4 mps 711 mmHg 47%
16:00 +28°C° 0.6 mm 4 mps 711 mmHg 57%
17:00 +26°C° 0.6 mm 3 mps 711 mmHg 66%
18:00 +24°C° 0.6 mm 3 mps 711 mmHg 76%
19:00 +24°C° 0.3 mm 2 mps 711 mmHg 77%
20:00 +23°C° 0.3 mm 1 mps 711 mmHg 77%
21:00 +23°C° 0.3 mm 1 mps 712 mmHg 78%
22:00 +23°C° 0.3 mm 1 mps 712 mmHg 79%
23:00 +23°C° 0.3 mm 1 mps 711 mmHg 81%

Tomorrow, 21 September, Monday

Time Temperature Precipitation Wind Pressure Humidity
00:00 +21°C° 0.3 mm 0 mps 711 mmHg 82%
01:00 +20°C° 0 mm 0 mps 711 mmHg 82%
02:00 +20°C° 0 mm 0 mps 711 mmHg 83%
03:00 +20°C° 0 mm 0 mps 710 mmHg 83%
04:00 +20°C° 0 mm 0 mps 710 mmHg 83%
05:00 +20°C° 0 mm 0 mps 710 mmHg 82%
06:00 +20°C° 0 mm 0 mps 710 mmHg 82%
07:00 +23°C° 0 mm 1 mps 711 mmHg 76%
08:00 +24°C° 0 mm 1 mps 711 mmHg 70%
09:00 +26°C° 0 mm 1 mps 712 mmHg 64%
10:00 +26°C° 0 mm 1 mps 712 mmHg 60%
11:00 +27°C° 0 mm 2 mps 712 mmHg 56%
12:00 +28°C° 0 mm 2 mps 711 mmHg 51%
13:00 +28°C° 0.2 mm 2 mps 711 mmHg 52%
14:00 +28°C° 0.2 mm 2 mps 711 mmHg 52%
15:00 +28°C° 0.2 mm 3 mps 711 mmHg 52%
16:00 +27°C° 0.3 mm 3 mps 711 mmHg 59%
17:00 +25°C° 0.3 mm 2 mps 710 mmHg 65%
18:00 +24°C° 0.3 mm 2 mps 710 mmHg 71%
19:00 +23°C° 0.1 mm 2 mps 710 mmHg 74%
20:00 +23°C° 0.1 mm 1 mps 711 mmHg 76%
21:00 +22°C° 0.1 mm 1 mps 711 mmHg 78%
22:00 +22°C° 0.3 mm 1 mps 711 mmHg 79%
23:00 +20°C° 0.3 mm 0 mps 710 mmHg 81%

Day after tomorrow, 22 September, Tuesday

Time Temperature Precipitation Wind Pressure Humidity
00:00 +20°C° 0.3 mm 0 mps 710 mmHg 82%
01:00 +20°C° 0 mm 0 mps 710 mmHg 83%
02:00 +20°C° 0 mm 0 mps 709 mmHg 83%
03:00 +20°C° 0 mm 0 mps 709 mmHg 84%
04:00 +20°C° 0 mm 0 mps 709 mmHg 84%
05:00 +20°C° 0 mm 0 mps 709 mmHg 83%
06:00 +20°C° 0 mm 0 mps 709 mmHg 83%
07:00 +21°C° 0 mm 0 mps 710 mmHg 75%
08:00 +25°C° 0 mm 1 mps 710 mmHg 68%
09:00 +26°C° 0 mm 1 mps 710 mmHg 61%
10:00 +28°C° 0 mm 1 mps 710 mmHg 54%
11:00 +29°C° 0 mm 2 mps 710 mmHg 48%
12:00 +30°C° 0 mm 2 mps 710 mmHg 41%
13:00 +30°C° 0 mm 3 mps 710 mmHg 41%
14:00 +30°C° 0 mm 4 mps 710 mmHg 41%
15:00 +30°C° 0 mm 5 mps 710 mmHg 41%
16:00 +28°C° 0.3 mm 4 mps 710 mmHg 50%
17:00 +26°C° 0.3 mm 4 mps 709 mmHg 58%
18:00 +24°C° 0.3 mm 3 mps 709 mmHg 67%
19:00 +25°C° 0.1 mm 3 mps 710 mmHg 66%
20:00 +25°C° 0.1 mm 2 mps 710 mmHg 65%
21:00 +25°C° 0.1 mm 1 mps 710 mmHg 63%
22:00 +25°C° 0 mm 1 mps 710 mmHg 62%
23:00 +25°C° 0 mm 1 mps 710 mmHg 60%

23 September, Wednesday

Time Temperature Precipitation Wind Pressure Humidity
00:00 +25°C° 0 mm 1 mps 709 mmHg 59%
01:00 +25°C° 0 mm 2 mps 709 mmHg 58%
02:00 +25°C° 0 mm 2 mps 709 mmHg 58%
03:00 +25°C° 0 mm 2 mps 709 mmHg 57%
04:00 +24°C° 0 mm 1 mps 709 mmHg 57%
05:00 +24°C° 0 mm 1 mps 709 mmHg 57%
06:00 +24°C° 0 mm 1 mps 709 mmHg 57%
07:00 +25°C° 0.2 mm 3 mps 709 mmHg 53%
08:00 +27°C° 0.2 mm 4 mps 710 mmHg 48%
09:00 +28°C° 0.2 mm 6 mps 711 mmHg 43%
10:00 +28°C° 0 mm 7 mps 711 mmHg 41%
11:00 +29°C° 0 mm 7 mps 711 mmHg 39%
12:00 +29°C° 0 mm 8 mps 711 mmHg 38%
13:00 +30°C° 0 mm 7 mps 711 mmHg 36%
14:00 +32°C° 0 mm 7 mps 710 mmHg 33%
15:00 +32°C° 0 mm 6 mps 710 mmHg 31%
16:00 +30°C° 0 mm 5 mps 710 mmHg 37%
17:00 +28°C° 0 mm 4 mps 710 mmHg 43%
18:00 +27°C° 0 mm 3 mps 709 mmHg 49%
19:00 +26°C° 0.1 mm 2 mps 710 mmHg 52%
20:00 +25°C° 0.1 mm 1 mps 710 mmHg 55%
21:00 +24°C° 0.1 mm 1 mps 710 mmHg 58%
22:00 +24°C° 0 mm 1 mps 710 mmHg 56%
23:00 +24°C° 0 mm 1 mps 710 mmHg 55%

24 September, Thursday

Time Temperature Precipitation Wind Pressure Humidity
00:00 +24°C° 0 mm 1 mps 710 mmHg 53%
01:00 +24°C° 0 mm 1 mps 709 mmHg 51%
02:00 +24°C° 0 mm 1 mps 709 mmHg 49%
03:00 +24°C° 0 mm 1 mps 709 mmHg 47%
04:00 +24°C° 0 mm 1 mps 709 mmHg 47%
05:00 +24°C° 0 mm 1 mps 709 mmHg 47%
06:00 +24°C° 0 mm 1 mps 709 mmHg 48%
07:00 +26°C° 0 mm 1 mps 709 mmHg 41%
08:00 +29°C° 0 mm 2 mps 710 mmHg 35%
09:00 +31°C° 0 mm 2 mps 710 mmHg 29%
10:00 +33°C° 0 mm 3 mps 710 mmHg 26%
11:00 +35°C° 0 mm 3 mps 710 mmHg 23%
12:00 +36°C° 0 mm 4 mps 710 mmHg 20%
13:00 +36°C° 0 mm 5 mps 710 mmHg 20%
14:00 +36°C° 0 mm 6 mps 710 mmHg 21%
15:00 +36°C° 0 mm 7 mps 709 mmHg 21%
16:00 +33°C° 0 mm 5 mps 709 mmHg 30%
17:00 +30°C° 0 mm 4 mps 709 mmHg 39%
18:00 +27°C° 0 mm 2 mps 709 mmHg 48%
19:00 +26°C° 0 mm 2 mps 710 mmHg 53%
20:00 +25°C° 0 mm 2 mps 710 mmHg 57%
21:00 +24°C° 0 mm 1 mps 710 mmHg 61%
22:00 +24°C° 0 mm 1 mps 710 mmHg 60%
23:00 +24°C° 0 mm 2 mps 710 mmHg 58%

25 September, Friday

Time Temperature Precipitation Wind Pressure Humidity
00:00 +24°C° 0 mm 2 mps 710 mmHg 56%
01:00 +24°C° 0 mm 2 mps 709 mmHg 56%
02:00 +24°C° 0 mm 2 mps 709 mmHg 55%
03:00 +24°C° 0 mm 1 mps 708 mmHg 55%
04:00 +24°C° 0 mm 1 mps 708 mmHg 55%
05:00 +24°C° 0 mm 1 mps 708 mmHg 55%
06:00 +24°C° 0 mm 1 mps 708 mmHg 56%
07:00 +26°C° 0 mm 3 mps 709 mmHg 50%
08:00 +27°C° 0 mm 4 mps 709 mmHg 44%
09:00 +28°C° 0 mm 5 mps 710 mmHg 39%
10:00 +29°C° 0 mm 5 mps 710 mmHg 38%
11:00 +29°C° 0 mm 6 mps 710 mmHg 38%
12:00 +29°C° 0 mm 6 mps 710 mmHg 37%
13:00 +28°C° 0 mm 6 mps 710 mmHg 42%
14:00 +27°C° 0 mm 6 mps 710 mmHg 47%
15:00 +26°C° 0 mm 6 mps 710 mmHg 52%
16:00 +23°C° 0 mm 6 mps 710 mmHg 58%
17:00 +21°C° 0 mm 5 mps 710 mmHg 65%
18:00 +19°C° 0 mm 5 mps 710 mmHg 71%
19:00 +19°C° 0 mm 4 mps 711 mmHg 72%
20:00 +18°C° 0 mm 4 mps 711 mmHg 72%
21:00 +18°C° 0 mm 4 mps 711 mmHg 73%
22:00 +17°C° 0 mm 4 mps 711 mmHg 73%
23:00 +17°C° 0 mm 4 mps 711 mmHg 73%
Show more